Simultaneous Nadir Overpasses (SNOs) Predictions

Prediction of SNOs between METOP-A and TERRA Satellite Orbit:

Table of predicted SNOs for the next 14.0 days since TLE Epoch: 8/9/2014
Index Date (METOP-A) Time (METOP-A) Lat,Lon (METOP-A) SZA (METOP-A ) Date (TERRA) Time (TERRA) Lat,Lon (TERRA) SZA (TERRA ) Distance(km) Time Diff (sec)
1 08/11/2014 10:22:27 -81.28,-109.02 111.29 08/11/2014 10:23:37 -81.28,-109.03 111.26 0.28 70
2 08/11/2014 11:13:06 81.29, 58.86 68.79 08/11/2014 11:13:03 81.29, 58.74 68.78 2.12 3
3 08/14/2014 05:56:50 -81.28, -42.57 110.42 08/14/2014 05:57:53 -81.28, -42.51 110.38 1.10 63
4 08/14/2014 06:47:29 81.29, 125.29 69.66 08/14/2014 06:47:19 81.29, 125.23 69.65 1.10 10
5 08/17/2014 01:31:14 -81.28, 23.83 109.53 08/17/2014 01:32:10 -81.28, 23.89 109.50 1.05 56
6 08/17/2014 02:21:53 81.29,-168.33 70.55 08/17/2014 02:21:36 81.29,-168.40 70.53 1.26 17
7 08/19/2014 21:05:38 -81.28, 90.17 108.62 08/19/2014 21:06:27 -81.27, 90.15 108.60 0.60 49
8 08/19/2014 21:56:17 81.29,-102.00 71.46 08/19/2014 21:55:53 81.28,-102.16 71.42 2.94 24
9 08/22/2014 16:40:00 -81.28, 156.84 107.64 08/22/2014 16:40:42 -81.28, 156.67 107.64 2.87 42




NCC Satellite Simultaneous Nadir Overpasses (SNOs) Prediction Service
